Notices

What's New in latest Release from April 7th, 2021:

- Updated Glossary, including Speed of Maximum Gust, and Total Hourly Precipitation

- Updated national and regional climate services offices contacts and prices information

- Addition of station inventory lists for 1981-2010, 1971-2000, and 1961-1990 Normals.

If you haven't already, please take our survey and provide feedback about our website: https://eccc.sondage-survey.ca/f/LanguageSelection.aspx?s=442ca660-fcf1-47c0-95a9-59707d6fd709

Hourly Data Report for November 18, 2019

EUREKA CLIMATE
NUNAVUT
Current Station Operator: ECCC - MSC

79°59'21.000" N
85°56'02.000" W
10.00 m
2401199
71613
NEK

Download Data

Hourly Data (November 2019)
Hourly Data Report for November 18, 2019
TIME
LST
Temp Definition
°C
Dew Point Definition
°C
Rel Hum Definition
%
Precip. Amount Definition
mm

Wind Dir Definition
10's deg

Wind Spd Definition
km/h
Visibility Definition
km
Stn Press Definition
kPa
Hmdx Definition


Wind Chill Definition


Weather Definition


00:00 -19.3 -21.7 81 0.0 11 11   100.55   -27 LegendNANA
01:00 -19.3 -21.8 81 0.0 11 16   100.56   -29 LegendNANA
02:00 -19.8 -22.4 79 0.0 11 14   100.57   -29 LegendNANA
03:00 -21.1 -23.8 79 0.0 2 11   100.61   -29 LegendNANA
04:00 -20.9 -23.7 78 0.0 6 5   100.63   -25 LegendNANA
05:00 -21.2 -23.8 79 0.0 11 17   100.65   -31 LegendNANA
06:00 -21.5 -24.0 80 0.0 11 15   100.67   -31 LegendNANA
07:00 -21.8 -24.4 80 0.0 9 11   100.69   -30 LegendNANA
08:00 -22.1 -24.7 80 0.0 7 6   100.71   -27 LegendNANA
09:00 -21.4 -23.4 83 0.0 12 13   100.72   -30 LegendNANA
10:00 -22.4 -24.5 83 0.0 4 7   100.74   -28 LegendNANA
11:00 -23.8 -26.1 82 0.0 2 9   100.74   -31 LegendNANA
12:00 -24.0 -26.3 81 0.0 5 5   100.77   -29 LegendNANA
13:00 -24.4 -26.6 82 0.0 6 6   100.78   -30 LegendNANA
14:00 -25.3 -27.6 81 0.0 10 14   100.81   -35 LegendNANA
15:00 -26.3 -28.7 81 0.0 3 14   100.81   -36 LegendNANA
16:00 -25.5 -27.7 82 0.0 2 8   100.82   -33 LegendNANA
17:00 -25.2 -27.4 81 0.0 10 13   100.84   -35 LegendNANA
18:00 -25.0 -27.3 81 0.0 7 4   100.85   -29 LegendNANA
19:00 -25.2 -27.5 81 0.0 10 4   100.85   -29 LegendNANA
20:00 -25.5 -27.6 82 0.0 8 3   100.85   -29 LegendNANA
21:00 -24.6 -26.7 82 0.0 9 5   100.86   -29 LegendNANA
22:00 -24.9 -27.2 81 0.0 5 4   100.85   -29 LegendNANA
23:00 -24.3 -26.4 83 0.0 2 10   100.85   -32 LegendNANA

Notes on Data Quality.

Legend

  • E = Estimated
  • M = Missing
  • NA = Not Available*
  • [empty] = Indicates an unobserved value
Date modified: